Temp
50 50 50 51 51 50 50 51 50 51 51 50 50 50 50 51 50 46 39 41 36 31 32 33 34 28 28 24 16 18 20 18 19 15 6 19 12 20 15 21 18 17 14 11 14 8 11 30 28 20 27 33 31 31
50 50 50 50 50 50 50 50 49 49 50 50 49 50 49 50 51 49 36 40 42 33 30 36 36 39 39 36 29 19 22 13 22 13 8 8 5 6 8 1 26 11 18 11 17 17 30 32 31 35 32 26 27 26
48 49 49 49 49 49 50 49 50 49 50 50 49 49 49 49 50 47 36 36 37 33 32 29 30 37 40 39 42 28 21 32 29 29 16 19 11 16 1 5 12 20 27 17 16 25 26 31 34 34 32 28 28 27
48 48 48 48 48 49 49 49 49 48 49 50 49 49 48 48 49 48 35 37 37 33 24 26 32 32 39 39 38 39 36 33 33 29 25 20 11 24 13 20 18 21 23 19 20 26 29 30 30 28 29 27 26 26
47 47 47 47 47 47 48 48 49 48 47 48 48 48 48 48 48 44 38 37 40 33 24 21 22 32 35 35 34 36 34 32 31 26 24 20 18 20 16 24 19 27 24 20 18 29 29 30 32 28 24 23 22 21
47 47 47 47 47 47 47 47 47 48 47 47 47 47 48 48 48 37 32 37 39 38 29 16 28 24 34 34 33 32 32 31 31 27 26 25 31 25 18 13 26 30 31 31 27 32 28 28 28 26 22 20 21 20
46 46 46 47 46 47 46 46 47 48 47 46 46 47 47 47 40 33 31 34 40 39 29 22 18 22 31 29 25 28 30 31 29 28 25 26 27 28 22 16 27 30 31 32 29 23 23 25 22 22 21 19 18 16
45 46 46 46 45 46 47 47 46 47 46 46 46 46 47 47 45 36 40 41 40 34 30 20 19 18 25 17 18 28 27 28 27 26 23 25 27 27 18 26 29 30 30 25 22 20 19 19 17 16 16 14 10 10
45 45 45 45 45 46 46 45 45 46 46 45 46 46 40 37 32 31 43 44 39 32 22 15 11 16 28 23 23 19 27 19 28 22 24 24 21 16 21 26 25 14 13 9 12 11 11 8 9 10 9 8 6 7
42 44 45 44 44 44 45 45 45 45 45 45 39 32 27 30 41 41 33 28 28 29 28 18 9 9 23 19 16 14 20 18 16 17 25 19 17 27 10 10 10 10 8 7 3 3 1 1 3 4 4 6 6 5
42 43 43 43 43 43 44 44 44 45 44 33 30 28 33 41 30 27 22 21 21 18 26 23 23 21 25 17 15 26 19 19 13 10 9 -7 -2 17 7 4 6 7 6 4 2 3 3 2 1 1 2 2 2 1
42 42 42 41 41 42 43 43 44 38 33 33 32 34 33 28 23 18 16 17 17 15 9 11 15 21 18 22 15 19 15 16 10 -3 2 -2 10 0 -2 -1 1 2 -2 -3 -2 -2 0 2 2 -1 -2 -3 -2 -1
41 41 42 42 41 42 42 43 44 43 40 34 29 24 25 21 15 13 5 1 -1 4 6 7 12 20 19 23 16 16 10 7 1 -1 2 6 -1 -2 -6 -4 -4 -3 -3 -3 -2 -1 -2 -4 -4 -5 -5 -3 -3 -3
41 42 42 42 42 43 43 43 44 41 33 26 22 16 16 10 9 9 6 3 5 8 1 6 9 15 9 14 18 8 11 7 0 -1 1 -12 -9 -12 -8 -5 -5 -6 -7 -7 -7 -7 -7 -7 -7 -5 -5 -4 -4 -3
41 41 41 41 41 42 42 43 43 37 30 23 22 14 13 4 -3 -4 -5 4 4 7 9 8 14 21 9 15 19 12 8 0 2 1 -11 -12 -9 -7 -7 -7 -9 -10 -10 -10 -9 -10 -9 -8 -8 -7 -5 -2 -0 -0
41 39 34 40 41 42 42 41 36 32 27 23 17 12 1 5 -0 -1 2 5 7 10 13 15 12 13 10 13 11 6 -2 -3 0 -22 -19 -14 -17 -15 -14 -13 -12 -11 -12 -11 -11 -11 -9 -8 -8 -6 -3 -1 -1 -2
39 23 38 40 41 41 42 31 29 23 20 12 -2 -8 -6 -1 -2 -8 -5 -0 6 3 4 9 7 7 11 9 4 -3 -3 -17 -24 -23 -19 -18 -17 -15 -14 -14 -14 -13 -13 -13 -11 -9 -9 -7 -5 -2 -4 -3 -2 -1
18 26 36 37 34 33 28 25 21 13 3 2 -4 -12 -7 -9 -8 -9 -7 1 2 1 -2 0 3 -5 -5 -6 -5 -19 -23 -26 -24 -21 -14 -13 -17 -18 -17 -16 -14 -14 -13 -11 -12 -9 -7 -3 -3 -3 -3 -3 -3 -2
27 33 35 36 32 24 20 16 13 1 -4 -7 -4 -5 -9 -12 -5 -4 -7 -1 1 -2 -2 -6 -8 -10 -11 -20 -24 -28 -31 -28 -24 -14 -13 -15 -14 -17 -17 -15 -14 -15 -14 -9 -7 -4 -2 -2 -2 -2 -3 -2 -4 -2
32 31 31 31 28 20 13 10 8 -1 -9 -4 -7 -12 -10 -10 -12 -21 -20 -6 -1 -10 -9 -9 -17 -24 -19 -17 -14 -14 -13 -13 -21 -25 -20 -15 -13 -19 -15 -11 -8 -8 -7 -5 -3 -2 -2 -3 -1 -1 -2 -2 -4 -4
26 25 27 21 13 11 7 5 1 -0 -2 -8 -10 -9 -10 -15 -24 -24 -22 -7 -12 -8 -16 -26 -27 -21 -19 -20 -19 -22 -17 -16 -21 -20 -22 -20 -10 -8 -6 -6 -7 -7 -8 -7 -7 -6 -5 -5 -3 -1 -2 -2 -1 -1
18 24 14 17 9 4 3 3 -0 -2 -8 -12 -11 -17 -24 -23 -26 -25 -14 -18 -16 -22 -23 -23 -24 -26 -27 -25 -22 -23 -22 -26 -24 -18 -10 -8 -10 -8 -7 -7 -9 -10 -9 -9 -8 -7 -7 -5 -4 -3 -3 -2 -1 -1
16 15 7 5 1 -4 -6 -3 -9 -7 -13 -14 -20 -18 -20 -25 -22 -10 -16 -25 -25 -20 -28 -28 -28 -30 -25 -23 -20 -19 -19 -19 -17 -13 -12 -10 -8 -6 -6 -7 -9 -12 -11 -10 -7 -7 -7 -6 -6 -6 -5 -4 -4 -5
7 -4 -8 -9 -10 -16 -14 -15 -11 -14 -15 -18 -20 -23 -22 -25 -14 -18 -21 -33 -25 -27 -25 -25 -25 -20 -19 -19 -19 -17 -14 -12 -11 -10 -9 -10 -9 -8 -7 -8 -9 -10 -11 -11 -9 -9 -8 -8 -8 -9 -10 -10 -9 -9
-3 -19 -15 -22 -17 -18 -22 -24 -22 -19 -22 -23 -22 -21 -20 -20 -18 -24 -23 -26 -29 -29 -23 -22 -18 -18 -19 -15 -10 -11 -10 -9 -8 -9 -9 -9 -9 -8 -8 -7 -7 -10 -10 -13 -13 -12 -12 -11 -11 -12 -14 -15 -17 -17
-24 -26 -25 -29 -24 -23 -25 -25 -26 -23 -24 -22 -20 -22 -25 -19 -21 -23 -24 -27 -30 -21 -16 -13 -14 -15 -14 -11 -10 -10 -8 -7 -9 -9 -7 -8 -9 -11 -11 -12 -12 -11 -13 -16 -19 -19 -16 -14 -15 -16 -16 -17 -18 -23
-27 -28 -26 -25 -23 -23 -24 -22 -20 -19 -22 -21 -23 -21 -18 -21 -24 -20 -25 -20 -14 -14 -12 -11 -10 -10 -9 -11 -8 -7 -6 -7 -8 -8 -7 -8 -9 -11 -13 -16 -16 -13 -16 -17 -20 -23 -21 -18 -16 -18 -21 -24 -29 -30
-27 -30 -25 -27 -28 -30 -30 -29 -26 -25 -22 -19 -21 -20 -18 -15 -18 -19 -14 -9 -13 -11 -10 -11 -9 -8 -9 -7 -7 -7 -9 -11 -11 -12 -14 -13 -13 -12 -14 -14 -14 -5 -11 -15 -16 -16 -18 -18 -17 -20 -26 -26 -25 -29
-29 -33 -29 -30 -32 -30 -31 -29 -30 -32 -29 -32 -26 -21 -19 -18 -19 -19 -13 -11 -14 -10 -11 -11 -10 -9 -8 -8 -9 -12 -14 -16 -15 -15 -16 -14 -15 -11 -13 -15 -17 -19 -20 -25 -14 -6 -7 -7 -10 -16 -21 -24 -25 -33
-29 -35 -28 -31 -28 -27 -28 -33 -34 -39 -38 -33 -33 -25 -23 -20 -17 -14 -14 -13 -11 -11 -9 -10 -12 -11 -14 -18 -18 -17 -21 -18 -15 -14 -19 -18 -16 -18 -24 -24 -21 -19 -23 -30 -20 -19 -14 -20 -20 -25 -25 -25 -26 -27
-38 -38 -32 -34 -29 -34 -38 -43 -45 -42 -41 -41 -44 -34 -31 -30 -25 -22 -17 -16 -21 -27 -24 -24 -26 -31 -24 -25 -27 -28 -19 -22 -22 -18 -18 -19 -20 -21 -20 -18 -18 -24 -28 -28 -26 -27 -24 -25 -27 -26 -24 -23 -22 -22
-40 -38 -31 -26 -29 -37 -42 -42 -43 -39 -42 -39 -35 -44 -34 -31 -27 -22 -24 -25 -27 -25 -19 -23 -24 -14 -18 -15 -24 -21 -15 -19 -26 -19 -19 -17 -17 -16 -15 -16 -20 -25 -26 -22 -22 -23 -23 -22 -20 -20 -19 -21 -21 -21
-45 -46 -47 -38 -33 -31 -38 -38 -37 -35 -38 -39 -37 -43 -43 -35 -24 -20 -22 -25 -21 -15 -16 -16 -14 -20 -21 -19 -18 -17 -15 -15 -16 -8 -6 -6 -9 -9 -11 -15 -18 -19 -19 -18 -17 -17 -18 -18 -17 -17 -18 -19 -19 -19
MSLP
1014.20 1014.23 1014.28 1014.13 1014.10 1014.21 1014.29 1014.29 1014.33 1014.36 1014.33 1014.46 1014.44 1014.61 1014.77 1014.86 1015.17 1015.75 1016.09 1016.40 1016.85 1016.67 1015.95 1016.06 1015.92 1016.05 1016.27 1016.89 1017.36 1017.60 1018.10 1018.18 1018.56 1018.84 1019.47 1019.14 1018.78 1017.77 1017.12 1016.11 1015.47 1015.20 1014.85 1013.84 1012.79 1011.45 1010.00 1009.87 1010.09 1011.19 1010.79 1010.31 1010.65 1010.38
1013.20 1013.21 1013.12 1013.20 1013.18 1013.27 1013.24 1013.27 1013.48 1013.61 1013.34 1013.52 1013.63 1013.73 1013.91 1014.02 1014.14 1014.54 1015.45 1015.66 1015.78 1016.04 1015.31 1014.86 1014.83 1014.78 1015.22 1015.20 1015.93 1017.01 1016.90 1017.13 1017.05 1017.70 1018.81 1018.87 1019.23 1018.66 1017.62 1017.07 1015.67 1015.26 1014.29 1013.79 1013.69 1011.90 1010.88 1010.15 1010.79 1010.36 1010.39 1010.51 1010.77 1011.05
1012.14 1011.94 1012.03 1012.11 1012.21 1012.33 1012.35 1012.44 1012.36 1012.42 1012.45 1012.56 1012.72 1012.84 1012.96 1013.12 1013.31 1013.53 1014.33 1014.83 1015.38 1015.18 1014.64 1014.50 1013.78 1013.84 1014.00 1014.13 1014.17 1015.22 1015.24 1015.44 1015.73 1015.94 1017.29 1017.81 1018.24 1017.61 1017.37 1016.35 1015.34 1014.53 1013.44 1013.27 1012.75 1011.62 1011.14 1010.52 1010.22 1010.28 1010.61 1010.85 1010.86 1010.94
1010.85 1010.90 1010.98 1011.14 1011.24 1011.21 1011.29 1011.42 1011.39 1011.58 1011.63 1011.42 1011.61 1011.84 1012.01 1012.18 1012.45 1012.74 1013.39 1013.85 1014.41 1014.30 1013.73 1012.82 1012.79 1012.67 1012.06 1012.65 1013.14 1013.32 1013.42 1014.24 1014.56 1015.23 1015.93 1016.31 1016.60 1015.47 1015.40 1014.68 1014.39 1013.68 1013.05 1012.33 1011.69 1011.00 1010.26 1009.86 1009.82 1010.26 1010.45 1010.77 1010.87 1011.04
1009.65 1009.68 1009.83 1009.95 1010.10 1010.28 1010.41 1010.55 1010.38 1010.59 1010.75 1010.73 1010.76 1010.86 1011.06 1011.29 1011.61 1011.92 1012.30 1012.41 1012.77 1013.63 1012.70 1012.75 1012.48 1011.89 1011.69 1011.87 1012.28 1012.48 1012.86 1013.29 1013.71 1014.12 1014.16 1014.23 1014.13 1014.27 1014.06 1013.63 1012.75 1012.12 1011.70 1011.54 1010.10 1009.79 1009.76 1009.42 1009.46 1010.10 1010.63 1011.01 1011.37 1011.44
1008.31 1008.39 1008.52 1008.73 1008.90 1009.10 1009.32 1009.45 1009.59 1009.49 1009.80 1009.87 1009.91 1009.94 1010.08 1010.33 1010.73 1011.53 1011.53 1011.14 1011.37 1012.14 1012.29 1012.18 1011.00 1010.71 1010.55 1010.83 1011.19 1011.56 1011.59 1012.25 1012.85 1012.71 1012.53 1012.55 1012.23 1012.58 1012.24 1011.58 1010.63 1010.55 1010.13 1009.76 1009.38 1009.46 1009.74 1009.57 1009.93 1010.53 1011.14 1011.64 1011.66 1011.80
1007.01 1007.11 1007.32 1007.51 1007.75 1007.94 1008.19 1008.50 1008.59 1008.57 1008.78 1008.96 1009.04 1009.10 1009.26 1009.50 1009.96 1010.32 1010.33 1010.03 1010.07 1011.25 1011.83 1011.81 1011.25 1010.31 1009.85 1010.31 1010.73 1010.98 1011.05 1011.33 1011.69 1011.67 1011.20 1011.31 1011.01 1011.28 1010.80 1010.05 1009.89 1009.48 1009.26 1009.11 1009.36 1010.17 1010.37 1010.19 1010.75 1011.39 1011.73 1012.00 1012.10 1011.79
1005.83 1005.95 1006.14 1006.41 1006.79 1006.90 1007.01 1007.28 1007.58 1007.67 1007.90 1008.07 1008.18 1008.29 1008.42 1008.58 1008.83 1008.98 1009.33 1009.77 1010.25 1010.77 1011.02 1011.09 1010.74 1011.38 1010.52 1010.70 1010.67 1010.09 1010.52 1010.77 1010.84 1010.49 1010.62 1010.52 1010.45 1010.59 1009.90 1009.61 1009.26 1009.09 1009.58 1009.93 1010.83 1011.40 1011.73 1011.81 1012.05 1012.26 1012.50 1012.40 1011.88 1011.30
1004.53 1004.81 1004.93 1005.21 1005.56 1005.76 1005.96 1006.33 1006.67 1006.73 1007.06 1007.29 1007.40 1007.48 1007.68 1007.84 1007.97 1008.12 1007.78 1008.37 1009.15 1010.15 1010.01 1010.11 1010.60 1010.91 1010.51 1010.38 1010.20 1010.33 1009.85 1010.29 1009.77 1009.91 1009.91 1010.39 1010.23 1009.81 1009.52 1009.79 1010.38 1011.46 1012.06 1012.79 1012.99 1013.16 1013.28 1013.40 1013.14 1013.00 1012.99 1012.65 1012.55 1011.40
1003.85 1003.79 1003.91 1004.17 1004.59 1004.94 1005.00 1005.33 1005.74 1005.95 1006.33 1006.58 1007.07 1007.28 1006.80 1006.90 1006.53 1006.92 1007.83 1008.67 1009.20 1009.17 1009.34 1009.24 1009.88 1010.43 1010.09 1009.97 1009.93 1010.14 1009.74 1009.85 1009.77 1009.77 1009.75 1010.33 1010.25 1010.00 1011.73 1012.41 1013.02 1013.60 1014.27 1014.66 1014.75 1014.64 1014.70 1014.45 1014.47 1013.80 1013.57 1013.16 1012.66 1011.92
1002.93 1002.93 1003.04 1003.20 1003.52 1003.87 1004.09 1004.39 1004.87 1005.21 1005.66 1006.12 1006.09 1006.12 1006.28 1006.45 1006.53 1007.36 1008.14 1008.48 1008.55 1008.66 1008.62 1008.37 1008.64 1008.81 1008.60 1008.93 1009.22 1009.13 1009.07 1009.48 1009.91 1010.23 1011.14 1012.09 1012.32 1012.30 1013.73 1014.55 1015.17 1015.60 1016.04 1016.42 1016.73 1016.54 1016.28 1015.85 1015.07 1014.34 1013.26 1012.95 1012.73 1012.06
1001.90 1002.00 1002.17 1002.48 1002.70 1002.92 1003.16 1003.57 1004.03 1004.52 1005.04 1005.28 1005.78 1006.09 1006.05 1006.29 1007.09 1007.88 1008.17 1008.50 1008.87 1009.07 1009.12 1008.72 1008.06 1007.78 1007.69 1007.75 1008.20 1008.59 1009.01 1009.93 1010.60 1011.52 1012.80 1013.94 1013.48 1014.94 1015.92 1016.46 1016.83 1017.19 1017.44 1017.41 1017.39 1016.89 1016.52 1016.09 1015.59 1015.02 1014.39 1013.37 1012.68 1011.82
1001.06 1001.14 1001.33 1001.53 1001.80 1002.05 1002.27 1002.59 1003.00 1003.47 1004.29 1005.17 1005.59 1005.73 1005.86 1006.38 1007.25 1007.96 1008.86 1009.81 1009.96 1009.25 1008.69 1008.68 1008.35 1007.68 1007.71 1007.48 1007.82 1008.47 1009.09 1010.12 1011.36 1012.93 1014.18 1014.33 1015.39 1016.69 1017.45 1017.73 1017.73 1017.94 1017.94 1017.81 1017.36 1016.99 1016.54 1015.96 1015.49 1014.97 1013.93 1013.15 1012.28 1011.36
1000.08 1000.07 1000.21 1000.38 1000.65 1000.86 1001.21 1001.63 1002.04 1002.74 1003.84 1004.15 1004.76 1005.30 1005.86 1006.74 1007.32 1008.06 1008.80 1009.26 1009.39 1009.47 1009.59 1008.88 1008.36 1008.13 1007.68 1007.68 1007.94 1008.68 1009.11 1010.72 1012.85 1014.73 1015.28 1016.23 1017.40 1018.10 1018.46 1018.40 1018.38 1018.22 1018.17 1017.80 1017.31 1016.87 1016.38 1015.80 1014.84 1014.13 1013.33 1012.51 1011.63 1010.50
999.04 999.24 999.38 999.61 999.73 999.96 1000.29 1000.53 1001.15 1001.93 1002.71 1003.25 1003.88 1004.94 1006.32 1007.39 1008.23 1009.05 1009.38 1010.05 1010.62 1010.20 1009.60 1009.17 1008.58 1008.17 1008.34 1008.26 1008.25 1009.29 1010.70 1012.32 1014.17 1015.66 1016.97 1018.08 1018.80 1019.21 1019.13 1019.03 1018.92 1018.57 1018.13 1017.69 1017.16 1016.52 1015.82 1015.18 1014.36 1013.32 1012.48 1011.66 1010.85 1009.98
998.06 998.53 998.75 998.78 998.84 999.02 999.28 999.89 1000.49 1001.48 1001.91 1003.31 1004.82 1006.71 1008.05 1008.93 1010.06 1010.09 1011.07 1011.38 1011.58 1010.86 1010.06 1009.60 1009.39 1009.19 1009.19 1009.41 1010.21 1011.49 1013.33 1014.77 1016.23 1018.16 1019.05 1019.39 1019.73 1019.91 1019.76 1019.47 1019.13 1018.69 1018.17 1017.46 1016.76 1016.00 1015.12 1014.34 1013.54 1012.55 1011.65 1010.97 1010.30 1009.70
997.65 998.13 997.97 997.93 997.94 998.06 998.61 999.89 1000.36 1001.45 1003.17 1005.69 1008.07 1008.89 1009.56 1009.97 1011.17 1012.68 1012.68 1012.62 1012.47 1012.04 1011.52 1011.22 1010.97 1010.34 1010.68 1011.64 1013.00 1014.00 1015.62 1017.54 1018.98 1020.15 1020.06 1020.28 1020.45 1020.19 1019.80 1019.39 1018.88 1018.27 1017.62 1016.81 1015.93 1015.06 1014.30 1013.43 1012.66 1011.81 1011.13 1010.57 1010.03 1009.42
997.74 997.82 997.61 997.63 998.11 998.35 998.98 999.67 1001.35 1003.38 1006.35 1008.70 1009.95 1010.53 1011.11 1011.78 1013.53 1014.20 1014.24 1013.86 1013.37 1013.02 1012.81 1012.84 1012.72 1013.16 1013.86 1015.06 1015.79 1017.55 1018.76 1019.74 1020.48 1020.69 1020.58 1020.42 1020.28 1020.08 1019.58 1019.08 1018.31 1017.59 1016.82 1015.94 1015.19 1014.36 1013.55 1012.63 1011.98 1011.41 1010.91 1010.38 1009.85 1009.26
998.08 997.35 996.68 997.42 998.10 998.91 1000.27 1002.20 1003.73 1006.76 1009.18 1010.48 1011.72 1012.41 1013.31 1014.63 1015.18 1015.38 1015.25 1014.88 1014.50 1014.32 1014.31 1014.84 1015.73 1016.45 1016.61 1017.62 1018.66 1019.47 1020.66 1021.00 1021.59 1021.15 1020.66 1020.24 1019.84 1019.57 1018.98 1018.29 1017.50 1016.77 1016.09 1015.35 1014.53 1013.65 1012.94 1012.34 1011.77 1011.22 1010.83 1010.40 1009.93 1009.38
998.13 997.82 997.91 998.02 998.39 1000.16 1002.39 1004.47 1005.72 1007.32 1009.93 1011.69 1012.86 1014.51 1015.19 1015.93 1016.49 1016.69 1016.42 1015.87 1015.56 1015.70 1016.45 1017.45 1018.20 1018.81 1018.99 1019.46 1020.01 1020.56 1020.97 1021.21 1021.47 1021.37 1020.62 1019.93 1019.38 1018.82 1018.24 1017.54 1016.99 1016.37 1015.68 1014.96 1014.14 1013.47 1012.81 1012.22 1011.68 1011.27 1010.91 1010.50 1010.12 1009.73
998.92 999.54 999.14 999.22 1001.47 1003.09 1005.25 1006.69 1008.40 1010.07 1011.78 1013.76 1014.54 1014.95 1016.66 1017.19 1017.96 1018.41 1018.15 1017.39 1017.34 1017.94 1018.85 1019.70 1019.95 1020.27 1020.41 1020.49 1020.67 1020.93 1021.16 1021.28 1021.29 1021.16 1020.76 1020.01 1018.88 1018.32 1017.70 1017.35 1016.91 1016.39 1015.86 1015.20 1014.47 1013.78 1013.26 1012.83 1012.27 1011.61 1011.17 1010.80 1010.45 1010.15
1001.03 1000.81 1001.40 1001.86 1003.66 1005.64 1007.45 1008.74 1009.66 1010.91 1012.41 1014.40 1015.66 1016.60 1017.91 1019.35 1019.33 1019.13 1018.77 1018.93 1019.31 1019.80 1020.21 1020.53 1020.94 1020.97 1021.03 1020.99 1021.04 1020.82 1020.68 1020.61 1020.39 1020.18 1019.72 1019.30 1018.82 1018.23 1017.75 1017.59 1017.18 1016.77 1016.28 1015.88 1015.24 1014.71 1014.19 1013.61 1012.92 1012.27 1011.80 1011.46 1011.09 1010.82
1001.99 1002.15 1003.93 1005.06 1006.38 1008.40 1011.03 1010.53 1011.53 1012.91 1014.59 1016.15 1016.89 1018.01 1019.32 1019.85 1019.37 1018.93 1019.65 1020.33 1020.41 1020.26 1020.60 1020.94 1020.84 1020.75 1020.97 1020.56 1020.49 1020.41 1020.29 1020.10 1020.15 1019.71 1019.41 1019.03 1018.62 1018.29 1018.01 1017.81 1017.70 1017.48 1017.06 1016.61 1016.13 1015.64 1015.06 1014.46 1013.84 1013.30 1012.86 1012.48 1012.21 1012.02
1004.50 1007.16 1008.91 1009.99 1011.17 1012.99 1012.98 1013.64 1013.95 1014.95 1015.99 1017.03 1018.01 1019.22 1019.73 1019.94 1019.22 1019.74 1020.50 1020.75 1020.47 1020.61 1020.89 1020.98 1020.80 1020.84 1020.68 1020.54 1020.48 1020.34 1019.87 1019.69 1019.53 1019.39 1019.19 1018.91 1018.57 1018.32 1018.11 1018.00 1018.09 1018.11 1018.06 1017.65 1017.03 1016.48 1015.92 1015.45 1015.05 1014.65 1014.33 1013.98 1013.78 1013.63
1007.76 1013.77 1014.01 1014.96 1015.31 1015.59 1016.51 1016.84 1017.05 1017.43 1018.27 1018.41 1019.16 1019.66 1019.67 1019.54 1019.68 1020.25 1020.70 1020.52 1020.58 1021.10 1020.44 1020.52 1020.47 1020.27 1020.30 1020.03 1019.79 1019.57 1019.39 1019.38 1019.32 1019.21 1019.05 1018.92 1018.74 1018.47 1018.32 1018.17 1018.10 1018.40 1018.39 1018.13 1017.82 1017.43 1016.96 1016.55 1016.24 1015.98 1015.75 1015.51 1015.37 1015.25
1014.10 1017.76 1018.06 1018.56 1018.54 1018.45 1019.20 1019.16 1019.25 1019.43 1019.34 1019.81 1020.02 1019.87 1019.72 1019.81 1020.05 1019.95 1019.53 1019.60 1019.57 1019.56 1019.42 1019.49 1019.59 1019.64 1019.52 1019.31 1019.30 1019.18 1019.13 1019.15 1019.17 1019.01 1018.63 1018.69 1018.76 1018.81 1018.78 1018.73 1018.60 1018.55 1018.65 1018.81 1018.76 1018.38 1017.89 1017.37 1017.07 1016.84 1016.66 1016.53 1016.46 1016.44
1018.13 1020.18 1020.34 1020.03 1020.09 1020.10 1020.62 1020.69 1020.62 1020.59 1020.86 1020.84 1020.86 1020.59 1020.23 1020.05 1019.63 1018.73 1018.44 1018.22 1018.23 1018.10 1018.05 1018.20 1018.48 1018.69 1018.72 1018.83 1018.83 1018.82 1018.89 1018.94 1018.89 1018.71 1018.52 1018.49 1018.53 1018.66 1018.85 1018.94 1018.88 1018.59 1018.54 1018.63 1018.79 1018.59 1018.30 1017.70 1017.27 1017.15 1017.22 1017.06 1017.05 1017.10
1020.78 1021.91 1022.14 1022.31 1021.93 1022.29 1022.46 1022.61 1022.59 1022.52 1022.42 1022.17 1021.86 1021.35 1020.59 1019.58 1019.02 1018.18 1017.85 1017.62 1017.58 1017.55 1017.78 1018.00 1018.15 1018.28 1018.47 1018.54 1018.62 1018.75 1018.76 1018.75 1018.68 1018.46 1018.35 1018.23 1018.12 1018.18 1018.34 1018.44 1018.40 1018.33 1018.31 1018.28 1018.17 1017.92 1017.68 1017.24 1016.92 1016.94 1017.22 1017.39 1017.13 1016.94
1022.72 1023.17 1023.12 1023.55 1023.41 1023.58 1024.14 1024.31 1024.56 1024.32 1023.90 1023.86 1023.35 1022.11 1020.87 1019.52 1018.56 1018.18 1017.71 1017.65 1017.67 1017.85 1018.16 1018.32 1018.36 1018.41 1018.52 1018.57 1018.57 1018.56 1018.69 1018.92 1019.18 1018.96 1018.90 1018.68 1018.48 1018.10 1017.72 1017.94 1018.07 1018.15 1018.15 1018.09 1017.73 1017.23 1016.85 1016.50 1016.07 1016.25 1016.61 1016.82 1016.79 1016.87
1024.70 1024.61 1024.41 1024.62 1024.65 1024.97 1025.06 1025.23 1025.71 1025.18 1024.90 1024.70 1024.35 1023.07 1021.75 1020.04 1018.39 1017.89 1017.81 1017.86 1017.99 1018.10 1018.09 1018.14 1018.25 1018.71 1018.86 1018.89 1018.75 1018.79 1018.47 1018.65 1018.66 1018.85 1018.61 1018.37 1018.46 1018.12 1018.04 1018.12 1018.00 1017.75 1017.73 1017.80 1017.51 1017.04 1016.66 1016.53 1016.27 1016.37 1016.36 1016.49 1016.43 1016.27
1025.73 1025.53 1025.53 1025.29 1025.52 1025.64 1026.06 1026.40 1026.24 1026.08 1025.69 1025.42 1025.09 1024.77 1023.29 1021.57 1019.33 1017.85 1017.72 1017.52 1017.72 1018.26 1018.81 1018.91 1019.10 1019.27 1019.12 1018.94 1019.15 1019.27 1018.74 1018.07 1017.84 1017.73 1017.69 1017.62 1017.57 1017.53 1017.31 1017.07 1016.90 1016.89 1016.97 1017.17 1017.15 1016.81 1016.62 1016.44 1016.18 1016.06 1015.93 1015.73 1015.41 1015.28
1026.44 1026.86 1026.91 1026.36 1026.13 1026.08 1026.47 1026.81 1026.50 1026.23 1025.98 1025.94 1025.63 1025.43 1023.87 1022.97 1021.19 1018.34 1017.16 1017.49 1018.21 1018.42 1018.08 1018.34 1018.47 1018.11 1017.74 1017.81 1018.03 1017.81 1017.31 1017.32 1017.39 1017.09 1016.99 1016.89 1016.63 1016.23 1016.07 1015.97 1015.92 1016.04 1016.25 1016.30 1016.10 1015.84 1015.68 1015.57 1015.27 1014.98 1014.87 1014.56 1014.33 1014.15
1027.54 1027.67 1027.72 1027.15 1026.68 1026.61 1026.73 1026.78 1026.32 1025.77 1025.62 1025.37 1025.39 1024.92 1024.28 1023.72 1021.91 1018.53 1016.93 1016.77 1016.93 1017.04 1017.05 1017.11 1016.95 1016.90 1016.90 1016.87 1016.81 1016.60 1016.49 1016.29 1016.07 1015.99 1015.76 1015.58 1015.33 1015.05 1014.91 1014.72 1014.67 1014.81 1014.98 1014.85 1014.65 1014.49 1014.34 1014.21 1014.01 1013.70 1013.52 1013.38 1013.12 1012.88
Wind_Speed
21 20 22 22 20 20 20 21 21 21 23 20 22 20 19 17 16 12 4 7 6 4 9 6 5 6 1 3 5 5 5 4 2 2 4 4 3 3 2 3 3 4 4 4 5 5 14 21 11 4 9 6 8 10
22 23 22 20 20 20 19 20 20 23 22 20 21 20 19 20 19 13 5 5 6 5 5 4 6 13 11 10 6 3 6 6 5 3 1 3 2 1 5 5 4 5 7 4 5 6 20 16 7 13 1 3 3 6
25 24 23 24 20 21 21 20 22 20 22 21 21 21 20 21 20 16 4 4 3 5 7 7 11 12 12 13 14 10 3 7 8 4 4 3 5 4 3 7 3 5 7 4 3 6 10 17 16 8 3 3 4 5
25 25 24 24 24 22 21 22 22 20 23 23 21 22 21 20 19 18 4 5 5 2 4 9 1 6 10 14 15 14 17 3 2 3 5 5 4 7 5 6 7 8 1 8 10 15 18 15 8 3 5 3 7 9
26 25 24 25 25 24 22 22 22 19 22 21 21 19 21 21 19 13 4 6 8 7 2 3 1 6 5 8 14 14 14 14 9 7 5 6 4 2 3 4 8 12 15 12 16 17 14 17 10 1 5 5 5 10
27 26 25 24 24 24 24 22 23 20 19 21 22 21 20 21 19 2 5 7 9 7 4 2 3 5 12 14 14 14 13 9 7 4 5 5 8 5 6 6 12 15 18 20 21 19 10 12 10 0 3 8 10 12
27 25 25 24 23 22 21 21 22 21 20 19 20 19 19 19 7 5 3 3 11 8 3 3 5 4 6 6 3 4 5 4 5 5 5 6 8 8 6 11 16 17 16 17 6 1 10 9 4 9 10 11 12 13
26 24 23 22 23 23 21 21 22 20 19 18 19 19 19 19 17 11 9 7 9 3 4 4 4 3 2 2 3 5 6 6 5 5 1 6 5 6 8 14 18 19 14 5 3 3 6 10 10 7 10 11 15 16
26 24 23 22 23 23 20 19 21 20 16 17 17 18 8 4 5 4 12 19 6 4 3 3 5 6 3 3 1 2 3 4 3 6 7 5 6 8 11 14 7 7 5 6 6 5 3 7 14 12 12 13 13 17
19 20 21 22 22 24 20 19 20 19 16 15 6 4 4 4 9 9 4 3 4 4 4 4 3 4 5 4 3 3 2 4 4 5 2 5 8 14 9 8 8 8 9 8 6 5 8 9 11 15 15 14 14 17
21 20 20 21 22 22 21 18 18 17 12 3 4 4 1 9 3 3 4 5 4 4 5 4 10 8 3 4 4 4 3 3 3 7 7 2 4 2 6 7 8 8 8 7 4 8 9 11 15 16 19 15 16 18
19 19 18 19 21 20 19 19 17 10 4 4 3 3 3 3 2 5 5 3 3 6 3 5 6 6 3 3 4 4 4 4 5 2 4 3 4 4 6 5 6 7 8 8 6 10 12 14 15 16 16 18 18 20
19 19 17 18 18 19 19 19 20 16 9 2 4 5 5 4 7 7 8 3 1 3 3 2 2 2 1 3 2 3 5 6 3 3 6 6 4 3 4 4 6 5 6 9 11 11 14 15 14 14 17 16 18 18
19 19 19 19 21 20 19 19 20 15 5 6 6 7 7 4 5 5 7 6 4 2 2 2 2 3 2 2 3 3 5 4 2 4 9 0 1 4 5 4 6 11 10 11 12 12 13 14 15 15 15 15 16 17
19 17 17 16 19 19 20 20 20 8 5 6 5 7 5 2 2 3 3 4 2 2 1 2 2 1 1 3 3 1 1 4 7 7 2 3 4 7 8 8 9 10 11 12 11 12 14 14 13 15 13 13 14 13
16 14 9 14 17 19 20 16 7 4 3 3 2 4 1 3 0 4 2 3 3 2 1 1 2 3 4 3 4 6 5 7 5 2 4 3 4 4 6 7 9 10 11 12 11 12 13 13 13 14 15 11 11 12
13 4 10 15 16 18 17 4 3 4 3 5 1 3 2 5 5 2 1 1 3 2 3 2 4 9 2 2 3 4 6 2 4 4 3 3 6 8 7 8 10 10 11 11 11 11 12 11 12 10 10 10 10 9
3 3 7 7 2 5 2 3 4 5 6 2 2 1 3 4 4 1 1 2 1 2 2 3 2 2 6 6 5 2 1 3 3 3 4 5 5 7 7 9 10 10 10 10 9 10 10 9 8 6 8 9 8 6
8 11 14 12 7 3 4 4 5 5 3 2 3 3 4 3 3 3 1 1 1 1 2 3 3 4 4 2 4 3 3 3 2 3 4 6 6 7 8 8 8 6 7 8 9 7 6 7 6 5 5 5 5 5
15 24 20 23 10 3 5 4 3 5 4 2 4 3 3 3 0 2 3 2 1 3 3 2 4 4 3 3 2 2 2 2 1 3 4 3 4 4 6 5 6 8 7 8 7 8 6 6 5 4 4 4 4 5
11 10 15 9 5 7 6 3 5 3 4 4 3 3 3 3 4 3 2 3 3 1 2 3 3 3 1 1 0 1 2 2 4 4 4 4 6 5 5 6 7 5 5 6 7 8 8 6 6 6 5 5 4 4
4 11 4 7 6 5 6 6 4 2 5 2 3 2 3 3 2 3 2 4 0 3 3 3 3 2 1 2 3 4 4 2 4 3 4 4 3 4 5 6 6 6 6 6 7 7 7 7 7 6 6 6 6 6
8 7 6 7 7 8 2 3 6 4 5 1 3 4 3 2 3 1 1 2 4 3 3 3 3 4 3 3 0 2 2 1 1 1 2 2 2 3 3 4 5 5 6 6 7 7 7 10 9 7 7 7 6 6
12 9 8 6 6 2 3 6 3 4 4 4 4 2 2 2 2 3 2 3 4 1 1 1 2 2 2 3 1 1 2 1 0 0 1 2 2 2 3 2 2 3 4 5 5 6 7 7 9 7 7 7 7 6
10 11 7 7 5 7 7 6 6 5 3 2 4 2 2 2 2 1 3 4 1 2 2 2 2 2 3 1 1 1 1 0 0 1 1 0 1 2 2 2 1 2 4 5 6 7 6 6 6 6 6 6 7 6
11 5 5 1 3 5 1 4 3 2 2 3 1 2 2 3 2 5 4 4 4 4 4 4 4 2 1 2 1 1 1 1 1 2 2 2 1 0 2 3 3 1 2 0 2 4 6 5 4 6 5 5 6 5
7 4 4 1 2 2 4 2 1 2 3 2 1 1 2 1 5 5 3 3 2 3 3 4 4 3 3 2 2 2 2 2 4 3 3 3 3 3 3 2 3 3 1 2 2 2 4 6 5 4 4 3 3 2
3 2 3 4 4 1 4 2 2 2 2 1 2 2 4 5 5 3 3 1 2 3 3 2 2 2 2 2 1 1 2 0 3 3 2 3 3 3 4 4 4 8 3 3 3 4 4 5 5 5 3 4 4 3
3 3 2 4 3 4 1 3 3 3 2 3 3 3 4 3 2 2 2 1 1 3 3 2 2 1 1 1 2 2 2 2 1 2 2 3 3 3 3 3 3 3 3 3 8 8 7 8 4 4 5 4 4 3
3 2 3 2 3 1 3 3 3 3 2 2 1 3 3 4 3 1 1 2 4 4 4 2 2 3 3 3 3 4 2 4 5 5 4 4 5 3 2 3 4 4 3 3 5 6 7 4 5 4 3 4 3 4
1 3 3 1 2 3 3 2 2 1 2 1 1 3 4 5 6 3 4 3 3 3 3 2 3 3 3 4 4 2 5 3 6 8 6 4 4 5 5 5 5 3 3 3 4 4 4 4 3 5 6 7 8 6
3 2 2 1 3 3 4 3 1 1 3 2 2 2 4 4 4 4 3 4 3 3 6 4 4 7 6 6 3 4 6 4 3 5 7 6 7 7 7 6 4 3 4 5 5 5 5 7 6 7 7 9 9 8
2 1 1 1 4 4 3 2 4 4 2 2 3 2 3 3 6 5 3 4 5 5 5 6 6 3 5 6 6 5 6 6 7 10 11 12 13 12 7 5 5 5 6 6 6 6 8 9 9 11 10 10 11 10
Wind_Direction
260 263 263 262 264 261 269 258 259 272 271 265 261 251 246 245 245 235 225 191 191 235 244 225 194 200 208 142 171 250 18 353 41 165 143 238 207 202 267 209 275 280 290 302 323 288 263 8 353 8 285 296 298 314
263 262 261 263 264 271 273 270 261 266 265 263 261 252 242 239 243 236 217 201 205 220 249 203 228 240 235 223 207 215 203 176 218 113 286 56 322 317 163 264 236 268 202 208 182 252 310 317 290 303 3 225 279 293
261 258 256 256 255 261 272 269 271 263 266 262 258 255 249 243 246 239 186 174 185 234 249 233 229 222 234 231 222 236 244 216 226 178 172 209 222 144 187 236 205 255 261 236 339 255 279 281 293 279 351 258 280 276
261 262 259 257 261 260 257 261 269 267 267 266 261 253 250 247 244 246 175 178 206 243 246 258 12 210 224 220 216 217 240 199 182 151 219 196 194 196 219 237 213 223 260 243 264 275 276 268 252 173 293 249 302 307
260 258 257 256 253 255 261 267 268 261 265 272 267 266 251 249 247 242 224 191 196 210 275 267 291 242 211 184 209 217 231 235 232 233 214 223 220 164 241 250 244 235 251 253 261 266 273 281 286 162 258 291 290 288
257 258 257 256 252 253 251 256 265 267 266 266 264 258 252 247 242 136 244 207 191 191 252 261 289 214 218 205 203 210 212 222 219 209 225 223 225 211 218 225 245 247 242 244 258 269 279 267 283 81 334 316 301 295
257 257 255 255 253 255 253 253 257 265 261 266 262 257 249 248 227 202 202 252 182 154 238 243 263 284 223 200 228 196 183 205 206 229 219 232 234 206 232 247 260 251 254 260 251 174 266 241 279 338 314 313 300 286
259 260 255 250 249 252 250 250 255 264 263 265 263 258 256 253 251 238 199 172 141 191 195 230 245 353 203 202 205 176 188 192 211 222 239 226 248 227 246 246 254 260 272 278 98 16 318 313 310 317 315 312 307 298
251 255 258 250 243 250 254 254 253 261 259 264 264 259 268 236 205 215 198 208 190 191 221 168 161 233 148 233 210 357 159 185 190 212 222 198 222 225 227 252 284 41 43 359 340 323 352 336 312 312 311 305 294 297
260 258 256 248 243 252 252 248 249 257 253 258 258 196 215 219 167 109 74 154 197 201 221 224 96 233 167 178 225 112 167 211 211 234 153 214 238 248 57 70 66 54 43 20 7 339 329 307 307 305 297 293 291 295
266 265 264 251 243 247 249 243 244 247 248 168 216 207 150 169 78 114 195 198 191 213 200 201 200 211 236 166 192 217 187 193 207 249 158 254 274 184 56 52 36 29 17 0 330 291 289 285 299 304 306 303 302 297
263 263 253 254 251 244 244 238 238 232 172 183 135 130 205 153 163 179 190 183 203 214 256 173 211 194 197 137 133 194 187 177 235 108 101 258 238 70 24 357 347 347 334 312 294 293 297 295 295 293 292 292 294 293
261 253 250 251 247 245 244 241 236 221 188 132 199 195 175 176 195 197 173 266 235 222 212 175 217 162 72 210 165 152 185 219 75 83 214 220 90 34 340 315 315 314 300 307 306 302 298 291 288 284 286 286 292 292
261 259 261 254 245 242 242 241 232 227 186 203 191 199 186 195 222 180 176 179 224 146 226 163 118 176 204 117 187 170 224 106 189 195 231 134 251 281 294 300 322 319 313 305 300 298 294 293 292 292 287 289 291 294
257 263 257 254 250 245 239 229 227 206 212 210 192 200 181 165 29 147 128 94 337 264 298 35 43 184 259 221 199 153 218 235 201 222 178 245 298 308 314 320 312 307 306 302 299 297 292 291 292 293 291 292 298 302
252 254 247 247 249 243 241 235 215 184 157 192 54 124 323 106 337 52 52 94 348 330 357 28 145 175 233 216 192 215 138 218 230 191 240 283 277 286 282 289 288 286 287 287 287 286 287 292 289 291 295 305 309 312
249 203 230 249 258 238 220 145 160 83 104 135 120 353 108 72 91 117 14 83 326 39 174 148 185 212 27 226 232 195 209 205 203 260 253 250 273 286 286 289 287 284 285 284 285 290 286 286 286 293 308 317 318 311
164 263 265 287 168 96 59 65 84 63 74 42 185 273 63 62 98 77 285 0 4 94 96 196 63 130 198 192 253 221 249 252 229 241 275 279 269 278 279 283 288 282 283 289 289 287 287 294 311 311 316 317 314 322
53 11 231 151 97 87 75 56 62 108 93 88 74 41 65 86 45 59 44 323 58 142 78 54 113 206 228 180 182 239 247 207 244 289 287 286 280 278 282 284 278 287 298 304 306 304 315 319 313 321 323 321 329 334
49 33 47 61 59 64 72 46 83 84 77 75 50 45 82 82 119 27 355 348 55 72 64 183 211 207 172 196 184 210 233 239 140 319 292 276 277 276 290 316 329 321 320 322 328 347 342 342 347 346 339 350 348 347
33 359 18 41 61 50 66 38 62 78 112 105 208 58 68 28 36 25 345 326 59 48 200 209 206 229 199 223 158 187 263 191 203 191 226 293 319 322 340 351 344 339 343 347 351 353 359 350 342 347 354 1 2 7
359 19 56 19 67 49 70 19 93 82 62 104 57 67 62 52 352 298 236 55 252 226 183 172 211 168 12 307 252 201 230 215 252 253 268 284 316 339 356 1 353 351 356 0 356 355 346 346 349 355 6 5 16 26
12 28 51 14 77 45 346 16 70 22 85 283 26 56 23 12 245 261 68 209 244 239 180 174 201 187 186 266 93 328 222 99 40 356 328 313 299 337 355 15 7 360 355 358 350 350 354 358 1 7 7 19 19 24
31 44 31 37 38 65 5 24 30 57 52 42 65 53 337 232 301 47 250 258 250 317 99 206 124 75 8 25 52 277 305 2 92 58 349 338 1 349 343 347 23 8 351 316 337 349 358 4 4 9 12 16 21 23
71 353 30 10 5 48 39 19 359 56 84 7 79 9 312 15 39 327 237 267 274 239 217 177 129 131 147 219 238 217 222 31 301 296 233 8 338 319 347 326 56 53 2 357 359 349 350 352 358 0 9 15 11 9
69 310 65 327 328 85 242 71 39 111 90 59 43 277 26 72 47 251 235 220 218 187 181 177 165 154 225 201 192 210 209 206 262 252 224 192 204 58 335 342 333 291 80 68 304 315 329 336 336 349 347 352 359 356
66 345 324 351 123 94 47 32 97 85 83 136 225 55 79 177 250 252 279 226 185 207 173 162 164 170 175 179 217 226 214 220 228 262 288 229 218 197 180 216 275 262 302 264 254 240 284 311 316 322 314 310 272 270
132 45 81 307 44 9 120 72 79 147 169 101 86 179 187 207 242 240 215 237 176 127 116 130 153 154 162 205 219 248 268 279 294 294 292 265 228 215 214 234 246 273 299 280 272 274 260 277 287 291 277 283 289 268
44 318 76 22 14 31 144 151 208 240 197 111 156 245 253 247 243 228 253 189 129 111 134 158 228 176 245 271 264 240 210 160 81 318 298 284 324 295 204 220 244 262 266 275 283 284 275 283 263 242 255 254 273 275
331 6 79 57 100 255 249 163 215 255 243 197 219 314 298 273 250 234 183 142 170 198 203 185 167 167 212 192 279 310 254 195 196 186 198 235 230 241 218 242 264 263 246 248 278 294 310 341 330 335 328 306 292 292
323 38 58 74 215 253 237 285 306 345 20 351 331 170 250 300 303 244 215 193 152 120 120 228 261 218 189 215 199 244 291 260 213 226 234 253 266 262 258 254 245 234 228 241 257 258 267 275 253 277 285 287 287 282
11 81 117 9 301 293 23 45 349 38 329 12 282 332 318 349 287 281 218 124 112 198 223 179 202 246 207 233 217 233 230 266 232 229 234 239 248 252 254 254 243 217 230 241 236 235 235 250 268 264 269 275 274 271
40 30 64 23 3 359 326 40 21 336 4 330 277 221 224 196 246 278 297 209 185 198 206 210 227 232 216 221 227 238 231 241 250 256 255 249 248 254 254 239 224 220 235 248 252 247 255 252 261 263 260 258 264 265